Weather in Krasnyy Partizan

Russia / Republic of Kalmykia     46°05′47″N   42°41′55″E
temp.,
°C
wind,
m/s
gust,
m/s
humid.,
%
clouds,
%
prec.,
mm/h
press.,
hPa
HPBL,
m
1 december, wed
wed100:00+11s8178998 5.2 995766
03:00+11sw102163100 5.7 9961347
06:00+11sw14245831 0.0 9951627
09:00+7wsw131786100 0.4 9991167
12:00+4w101685100 0.6 10061197
15:00+6w1015525 0.6 10061395
18:00+4w5115838 0.0 1008370
21:00+4sw61268100 0.0 1008627
2 december, thu
thu200:00+4wsw71489100 1.1 1009830
03:00+4wsw51087100 1.2 1010586
06:00+3sw6108927 0.1 1013410
09:00+4wsw6108817 0.1 1016563
12:00+7wsw695510 0.0 10171446
15:00+7w69525 0.0 10181350
18:00+4wsw35705 0.0 102086
21:00+3ssw34740 0.0 102056
3 december, fri
fri300:00+3ssw35785 0.0 102187
03:00+3s45770 0.0 102171
06:00+3sse47747 0.0 1021106
09:00+5sse5126865 0.0 1022271
12:00+8sse7105276 0.0 1021523
15:00+9se51052100 0.0 1020563
18:00+5se41066100 0.0 1021228
21:00+4se411755 0.0 1020218
4 december, sat
sat400:00+4se498651 0.0 1020155
03:00+3sse4889100 0.0 1020128
06:00+3sse358789 0.0 101970
09:00+4se357755 0.0 1019103
12:00+10se335218 0.0 1018246
15:00+10ese46564 0.0 1016267
18:00+6ese488236 0.0 1016134
21:00+5ese4888100 0.0 1015160
5 december, sun
sun500:00+5ese51088100 0.0 1013205
03:00+4ese4985100 0.0 1012195
06:00+4ese4892100 0.0 1011193
09:00+5ese51087100 0.0 1010272
12:00+8se5770100 0.0 1010375
15:00+8ese4671100 0.0 1010291
18:00+6ese4682100 0.0 1011113
21:00+7sse4989100 0.0 1012244